Simultaneous Nadir Overpasses (SNOs) Predictions

Prediction of SNOs between GOES-16 and FY3D Satellite Orbit:

Table of predicted SNOs for the next 14.0 days since TLE Epoch: 5/11/2024
Index Date Time (GOES-16) GOES-16 Lat,Lon FY3D Lat,Lon Distance(km) Time Diff (sec)
1 05/12/2024 07:40:23 -0.01, -75.21 0.48, -77.49 260.01 80
2 05/13/2024 07:19:11 -0.01, -75.21 -0.51, -72.99 252.91 80
3 05/14/2024 19:44:06 0.00, -75.22 -0.72, -78.34 356.24 80
4 05/15/2024 19:22:54 0.01, -75.23 0.34, -73.85 157.35 80
5 05/17/2024 07:47:40 0.00, -75.25 0.89, -79.15 444.85 80
6 05/18/2024 07:26:27 -0.00, -75.27 -0.12, -74.65 69.25 80
7 05/20/2024 19:32:50 0.00, -75.30 -0.05, -75.51 23.97 80
8 05/21/2024 19:11:38 0.01, -75.31 0.97, -71.01 490.53 80
9 05/23/2024 07:36:23 -0.00, -75.35 0.23, -76.32 110.72 80
10 05/24/2024 07:15:10 -0.01, -75.36 -0.80, -71.82 403.85 80
